Погода в Елатьме

Погода в Елатьме : погода сейчас, прогноз погоды и архив. Всё, что Вы хотите узнать о погоде в Елатьме!

Поиск расширенной информации на нашем сайте:

Полезная информация: Юридическая фирма Автоадвокат.

Другие новости

Новости СМИ2

Главная страница сайта

Новости сайта

02.10.2013

Напоминаем, что на нашем новом сайте вы можете получить высокодетализированные прогнозы погоды по пунктам России, СНГ и мира (включающие важные для авиации метеовеличины, такие как направление и скорость ветра, видимость, явления погоды, количество и форма облачности, нижняя и верхняя граница облачности), а также ознакомиться с разнообразными материалами по авиационной метеорологии и подборкой полезных ссылок на эту тему.

Сайт Метеоцентр.Азия посвящён разработке технологий оптимизации авиаметеорологического обслуживания, включая проектирование и перспективное создание нескольких автоматизированных авиаметеорологических систем:
- система выпуска высокодетальных прогностических карт явлений погоды для нижнего воздушного пространства по России и ближнему зарубежью;
- система верификации прогнозов TAF (выпускаемых синоптиками официальных АМСГ РФ и ближнего зарубежья) и AUTOTAF (выпускаемых сайтом Метеоцентр.Азия) - выявление ошибок, онлайн-сопоставление с фактической погодой METAR, автоматическое внесение коррективов в прогнозы при резком отклонении фактической погоды от прогноза, подсчёт оправдываемости прогнозов по элементам и в целом;
- система обработки, анализа и отображения авиаметеорологической информации для применения провайдерами метеорологической информации.

Рекомендуем: Домашний текстиль ивановский текстиль. Покупкапродажа всего на свете.

Погода в Елатьме - сегодня

Время (UTC), дата Ветер
(°,м/с) 
Видим.   Явления Облачность Т
(°С)
Тd
(°С)
f(%) Тe
(°С)
Pmin
(гПа)
dP
(гПа)
Po
(мм)
O2
(г/м3)
Тmin Tmax R s Состояние
почвы
15 25.02.17 290 (З) 10 км    8/8 600 м 
[Sc]
-1.3 -9.6 53 -5  998.2  1.1  736  299    +2.1  0.3     
18 25.02.17 270 (З) 10 км    3/3 600 м 
[Sc]
-3 -9.5 61 -6  1000  1.6  737  301           
21 25.02.17 260 (З) 10 км    10/10 600 м 
[Sc]
-3.4 -7.9 71 -6  1000.9  0.9  738  302           
00 26.02.17 270 (З) 10 км    10/10 600 м 
[Sc]
-2.9 -6.4 77 -6  1001.5  0.6  738  301           
03 26.02.17 280 (З) 10 км    10/10 600 м 
[Sc]
-2.7 -6.1 77 -6  1002.7  1.3  739  302  -3.9      35  равномерный
мокрый или
старый снег
100% 
06 26.02.17 300 (СЗ) 10 км    10/10 600 м верхняя 
[Sc|Ci fib]
-3.1 -7.7 70 -7  1004.9  2.1  741  303           
09 26.02.17 310 (СЗ) 4{10}  10 км    4/3 600 м верхняя 
[Sc|Ci fib]
-3.1 -11.4 53 -6  1007.3  2.4  743  304           
12 26.02.17 260 (З) 5{11}  10 км    9/9 600 м 
[Sc]
-2.3 -9.4 58 -6  1007.8  0.5  743  303           
15 26.02.17 250 (З) 10 км    6/3 600 м верхняя 
[Sc|Ci fib]
-3.7 -9.6 64 -6  1007.9  743  304    -2.2       
18 26.02.17 250 (З) 10 км    10/0 верхняя 
[Ci fib]
-4.7 -8.8 73 -8  1007.5  -0.4  743  305           
21 26.02.17 240 (ЮЗ) 10 км    10/0 верхняя 
[Ci fib]
-4 -7.6 76 -6  1006.5  -1  742  304           
00 27.02.17 210 (ЮЗ) 4000 м  слаб. снег  10/0 средняя 
[As op]
-3.5 -4.1 96 -6  1003.9  -2.5  740  303           
03 27.02.17 240 (ЮЗ) 4000 м  слаб. снег  10/0 средняя 
[As op]
-2.3 -2.7 97 -4  1002  -1.8  739  301  -4.8    39  равномерный
сухой снег
100% 
06 27.02.17 250 (З) 4000 м  слаб. снег  10/0 средняя 
[As trans]
-0.4 -1.1 95 -3  1001.8  0.1  739  298           
09 27.02.17 260 (З) 4000 м  слаб. снег  10/8 300 м средняя 
[Frnb|As trans]
+0.8 -0.2 93 -1  1002.7  0.9  739  297           
12 27.02.17 250 (З) 4000 м  слаб. снег  10/6 300 м средняя 
[Frnb|As trans]
+1.1 +0.3 94 1003.3  0.7  740  297           
15 27.02.17 270 (З) 4000 м  слаб. дождь{снег}  10/10 300 м 
[Frnb|Ns]
+0.8 +0.3 96 1004.8  1.2  741  298         
18 27.02.17 290 (З) 4000 м  слаб. дождь со снегом  10/10 300 м 
[Frnb|Ns]
+0.8 +0.4 97 1007.5  2.7  743  298           
21 27.02.17 330 (СЗ) 4000 м  дымка{снег, дождь}  8/8 600 м 
[Sc]
+0.3 -0.6 94 -1  1010.8  3.2  745  300           
00 28.02.17 320 (СЗ) 4000 м  дымка{снег, дождь}  10/10 600 м 
[Sc]
-0.7 -1.7 93 -2  1013.8  2.9  748  302           
03 28.02.17 360 (С) 4000 м  дымка  9/9 600 м 
[Sc]
-1.3 -3 88 -2  1016.9  750  304  -1.3    0.3  38  равномерный
мокрый или
старый снег
100% 
06 28.02.17 030 (СВ) 10 км    10/10 600 м 
[Sc]
-1.3 -3.7 84 -1  1019.9  2.9  752  305  -1.8         
09 28.02.17 270 (З) 10 км    9/9 600 м 
[Sc]
+0.7 -3.7 72 +1  1021.2  1.4  753  303           
12 28.02.17 180 (Ю) 10 км    10/10 600 м 
[Sc]
+1.8 -6.8 53 +3  1021.3  0.2  753  302           
15 28.02.17 180 (Ю) 10 км    10/4 600 м средняя, верхняя 
[Sc|Ac trans|Ci fib]
-0.2 -4.8 71 -1  1021.7  0.2  753  304    +2.8       
Время (UTC), дата Ветер
(°,м/с) 
Видим.   Явления Облачность Т
(°С)
Тd
(°С)
f(%) Тe
(°С)
Pmin
(гПа)
dP
(гПа)
Po
(мм)
O2
(г/м3)
Тmin Tmax R s Состояние
почвы

Для получения пояснительной информации подведите курсор к названию столбца.

ПОГОДА в Елатьме - архив

Всё, что Вы хотите узнать о погоде в Елатьме - удобно и подробно!

Выберите нужную дату (начиная с 1 января 2015* года) и нажмите кнопку "Найти".
Будут отображены архивные сводки погоды по пункту Елатьма, начиная с указанной даты.


Отображать данные в формате CSV (для использования в таблицах Excel)


Внимание! Наш архив погоды предназначен исключительно для личного некоммерческого использования в познавательных целях. Если Вам необходимы официальные справки о состоянии погоды (для производственных, юридических, коммерческих и т.п. целей), обращайтесь в органы Росгидромета.

*Примечание: данная дата относится к архиву по метеостанциям СССР (Россия, СНГ, Балтия).
Архив по метеостанциям Зарубежной Европы и Азии (кроме Китая) хранится 10 дней, по другим регионам земного шара (Китай, Африка, Америка, Австралия, Океания) - 1 день.

Елатьма - район местоположения метеостанции


Название, широта, долгота, высота метеостанции:
Елатьма 54.9°ш. 41.8°д. 136 м над ур. моря [Российская Федерация]

Дополнительная информация

В oтличие oт бoльшинства пoгoдных сайтoв мы публикуем пoдрoбную метеoинфoрмацию в детальнoм прoфессиoнальнoм фoрмате.

Характеристики температуры и влажнoсти вoздуха измеряются на высoте 2 м в тени вдали oт зданий и деревьев.
Скoрoсть ветра измеряется на высoте 10 м (на урoвне рoста челoвека скoрoсть ветра ниже в 1.5-2 раза). Если метеoстанция нахoдится в гoрoде или в лесу, тo скoрoсть ветра занижена на 2-4 м/с пo сравнению с oткрытым местoм. Скoрoсть ветра над акватoриями крупных рек и oзёр, а также на вершинах хoлмoв на 2-5 м/с выше, чем в oбычных услoвиях.
Атмoсфернoе давление в разных тoчках местнoсти мoжет значительнo oтличаться oт давления на метеoстанции, в зависимoсти oт услoвий рельефа (при пoдъёме на 10 м давление пoнижается примернo на 1 мм рт.ст.).